Location: Moscow
(55.7500°N, 37.5830°E)
Time: 22:37:38
(UTC+03:00)

A-11 Canister half - Pass Details

Date: 06 December 2021
Orbit: 1516 x 1684 km, 47.2° (Epoch: 16 January)

Event Time Altitude Azimuth Distance (km) Brightness Sun altitude
Rises 13:43:09 0° 283° (WNW) 4,892 11.7 9.8°
Reaches altitude 10° 13:47:12 10° 270° (W) 3,921 11.5 9.6°
Maximum altitude 13:54:11 22° 225° (SW) 3,095 12.0 9.2°
Drops below altitude 10° 14:01:14 10° 180° (S) 3,941 12.7 8.8°
Sets 14:05:21 0° 167° (SSE) 4,922 12.6 8.6°
